| time (UTC) | temp C | wind direction | speed KPH | gust KPH | rain 1hr cm | rain 24hr cm | rain mn cm | humidity % | barometer mb |
| 20260902185026 | 13 | 209 | 3.2 | 12.9 | 0.20 | 0.48 | 0.48 | 88 | 994.2 |
| 20260902184604 | 13 | 325 | 1.6 | 12.9 | 0.18 | 0.43 | 0.46 | 88 | 994.1 |
| 20260902184018 | 13 | 236 | 1.6 | 6.4 | 0.18 | 0.41 | 0.41 | 88 | 994.0 |
| 20260902183503 | 13 | 223 | 1.6 | 3.2 | 0.18 | 0.41 | 0.41 | 88 | 993.9 |
| 20260902183041 | 13 | 245 | 1.6 | 6.4 | 0.18 | 0.38 | 0.38 | 87 | 993.9 |
| 20260902182546 | 13 | 123 | 1.6 | 8.0 | 0.18 | 0.36 | 0.36 | 87 | 993.8 |
| 20260902182054 | 13 | 50 | 0.0 | 11.3 | 0.18 | 0.36 | 0.36 | 87 | 994.0 |
| 20260902181519 | 13 | 156 | 4.8 | 11.3 | 0.20 | 0.33 | 0.33 | 87 | 994.1 |
| 20260902181024 | 13 | 5 | 1.6 | 6.4 | 0.23 | 0.30 | 0.30 | 87 | 994.2 |
| 20260902180532 | 13 | 214 | 1.6 | 6.4 | 0.23 | 0.30 | 0.30 | 87 | 994.3 |
| 20260902180055 | 13 | 150 | 0.0 | 6.4 | 0.25 | 0.30 | 0.30 | 87 | 994.5 |
| 20260902175553 | 13 | 182 | 1.6 | 12.9 | 0.23 | 0.28 | 0.28 | 87 | 994.3 |
| 20260902175105 | 13 | 142 | 1.6 | 12.9 | 0.25 | 0.28 | 0.28 | 87 | 994.4 |
| 20260902174548 | 13 | 165 | 1.6 | 12.9 | 0.23 | 0.25 | 0.25 | 86 | 994.5 |
| 20260902174044 | 13 | 161 | 4.8 | 12.9 | 0.20 | 0.23 | 0.23 | 86 | 994.6 |
| 20260902173552 | 14 | 159 | 1.6 | 12.9 | 0.23 | 0.23 | 0.23 | 86 | 994.7 |
| 20260902173049 | 14 | 159 | 1.6 | 9.7 | 0.20 | 0.20 | 0.20 | 85 | 994.5 |
| 20260902172528 | 14 | 195 | 1.6 | 9.7 | 0.18 | 0.18 | 0.18 | 85 | 994.6 |
| 20260902172036 | 14 | 209 | 4.8 | 9.7 | 0.18 | 0.18 | 0.18 | 85 | 994.6 |
| 20260902171557 | 14 | 209 | 1.6 | 6.4 | 0.13 | 0.13 | 0.13 | 84 | 994.5 |
| 20260902171056 | 15 | 192 | 1.6 | 11.3 | 0.08 | 0.08 | 0.08 | 84 | 994.5 |
| 20260902170556 | 15 | 187 | 1.6 | 11.3 | 0.08 | 0.08 | 0.08 | 84 | 994.4 |
| 20260902170031 | 15 | 238 | 1.6 | 3.2 | 0.05 | 0.05 | 0.05 | 83 | 994.4 |
| 20260902165535 | 15 | 272 | 0.0 | 3.2 | 0.05 | 0.05 | 0.05 | 83 | 994.4 |
| 20260902165039 | 15 | 272 | 0.0 | 4.8 | 0.03 | 0.03 | 0.03 | 83 | 994.3 |
| 20260902164504 | 15 | 152 | 1.6 | 4.8 | 0.03 | 0.03 | 0.03 | 82 | 994.4 |
| 20260902164012 | 15 | 211 | 0.0 | 8.0 | 0.03 | 0.03 | 0.03 | 82 | 994.3 |
| 20260902163520 | 15 | 211 | 0.0 | 8.0 | 0.00 | 0.00 | 0.00 | 82 | 994.3 |
| 20260902163051 | 15 | 195 | 1.6 | 9.7 | 0.00 | 0.00 | 0.00 | 82 | 994.2 |
| 20260902162603 | 15 | 254 | 0.0 | 9.7 | 0.00 | 0.00 | 0.00 | 81 | 994.3 |
| 20260902162009 | 15 | 188 | 0.0 | 8.0 | 0.00 | 0.00 | 0.00 | 81 | 994.3 |
| 20260902161543 | 15 | 255 | 0.0 | 8.0 | 0.00 | 0.00 | 0.00 | 82 | 994.2 |
| 20260902161048 | 15 | 190 | 1.6 | 4.8 | 0.00 | 0.00 | 0.00 | 81 | 994.3 |
| 20260902160555 | 15 | 360 | 0.0 | 4.8 | 0.00 | 0.00 | 0.00 | 82 | 994.2 |
| 20260902160009 | 15 | 278 | 0.0 | 3.2 | 0.00 | 0.00 | 0.00 | 82 | 994.3 |
| 20260902155512 | 15 | 278 | 0.0 | 3.2 | 0.00 | 0.00 | 0.00 | 82 | 994.3 |
| 20260902155019 | 15 | 278 | 0.0 | 4.8 | 0.00 | 0.00 | 0.00 | 82 | 994.3 |
| 20260902154558 | 15 | 278 | 0.0 | 3.2 | 0.00 | 0.00 | 0.00 | 82 | 994.4 |
| 20260902154102 | 15 | 315 | 0.0 | 3.2 | 0.00 | 0.00 | 0.00 | 83 | 994.3 |
| 20260902153506 | 15 | 312 | 0.0 | 3.2 | 0.00 | 0.00 | 0.00 | 83 | 994.5 |
| 20260902153044 | 15 | 273 | 1.6 | 4.8 | 0.00 | 0.00 | 0.00 | 83 | 994.5 |
| 20260902152550 | 15 | 273 | 0.0 | 4.8 | 0.00 | 0.00 | 0.00 | 83 | 994.6 |
| 20260902152052 | 15 | 192 | 0.0 | 1.6 | 0.00 | 0.00 | 0.00 | 83 | 994.7 |
| 20260902151528 | 15 | 192 | 0.0 | 8.0 | 0.00 | 0.00 | 0.00 | 82 | 994.7 |
| 20260902151032 | 15 | 192 | 0.0 | 8.0 | 0.00 | 0.00 | 0.00 | 82 | 994.8 |
| 20260902150532 | 15 | 211 | 1.6 | 6.4 | 0.00 | 0.00 | 0.00 | 82 | 995.0 |
| 20260902150100 | 14 | 303 | 1.6 | 6.4 | 0.00 | 0.00 | 0.00 | 82 | 994.9 |
| 20260902145517 | 14 | 263 | 1.6 | 4.8 | 0.00 | 0.00 | 0.00 | 82 | 994.9 |
| 20260902145003 | 14 | 273 | 0.0 | 1.6 | 0.00 | 0.00 | 0.00 | 82 | 995.0 |
| 20260902144540 | 14 | 273 | 0.0 | 1.6 | 0.00 | 0.00 | 0.00 | 82 | 994.9 |
| 20260902144048 | 14 | 273 | 0.0 | 1.6 | 0.00 | 0.00 | 0.00 | 82 | 994.9 |
| 20260902143550 | 14 | 273 | 0.0 | 1.6 | 0.00 | 0.00 | 0.00 | 82 | 994.9 |
| 20260902143020 | 14 | 273 | 0.0 | 1.6 | 0.00 | 0.00 | 0.00 | 82 | 995.0 |
| 20260902142528 | 14 | 268 | 0.0 | 0.0 | 0.00 | 0.00 | 0.00 | 82 | 995.0 |
| 20260902142036 | 14 | 268 | 0.0 | 0.0 | 0.00 | 0.00 | 0.00 | 82 | 995.1 |
| 20260902141559 | 14 | 268 | 0.0 | 0.0 | 0.00 | 0.00 | 0.00 | 82 | 995.1 |
| 20260902141054 | 14 | 268 | 0.0 | 0.0 | 0.00 | 0.00 | 0.00 | 81 | 995.1 |
| 20260902140603 | 14 | 268 | 0.0 | 0.0 | 0.00 | 0.00 | 0.00 | 81 | 995.2 |
| 20260902140028 | 14 | 268 | 0.0 | 0.0 | 0.00 | 0.00 | 0.00 | 81 | 995.2 |
| 20260902135533 | 14 | 268 | 0.0 | 0.0 | 0.00 | 0.00 | 0.00 | 81 | 995.3 |
| 20260902135037 | 14 | 268 | 0.0 | 0.0 | 0.00 | 0.00 | 0.00 | 81 | 995.2 |
| 20260902134503 | 14 | 268 | 0.0 | 0.0 | 0.00 | 0.00 | 0.00 | 81 | 995.4 |
| 20260902134006 | 14 | 268 | 0.0 | 0.0 | 0.00 | 0.00 | 0.00 | 81 | 995.4 |
| 20260902133514 | 14 | 268 | 0.0 | 0.0 | 0.00 | 0.00 | 0.00 | 80 | 995.5 |
| 20260902133056 | 14 | 268 | 0.0 | 0.0 | 0.00 | 0.00 | 0.00 | 80 | 995.5 |
| 20260902132552 | 14 | 268 | 0.0 | 0.0 | 0.00 | 0.00 | 0.00 | 80 | 995.6 |
| 20260902132101 | 14 | 269 | 0.0 | 0.0 | 0.00 | 0.00 | 0.00 | 80 | 995.7 |
| 20260902131549 | 14 | 269 | 0.0 | 0.0 | 0.00 | 0.00 | 0.00 | 80 | 995.8 |
| 20260902131040 | 14 | 269 | 0.0 | 0.0 | 0.00 | 0.00 | 0.00 | 80 | 995.8 |
| 20260902130546 | 14 | 273 | 0.0 | 3.2 | 0.00 | 0.00 | 0.00 | 80 | 995.9 |
| 20260902130021 | 14 | 180 | 0.0 | 3.2 | 0.00 | 0.00 | 0.00 | 80 | 996.2 |
| 20260902125531 | 14 | 182 | 0.0 | 3.2 | 0.00 | 0.00 | 0.00 | 80 | 996.1 |
| 20260902125034 | 14 | 178 | 0.0 | 3.2 | 0.00 | 0.00 | 0.00 | 80 | 996.4 |
| 20260902124612 | 14 | 175 | 0.0 | 3.2 | 0.00 | 0.00 | 0.00 | 80 | 996.4 |
| 20260902124004 | 14 | 220 | 0.0 | 6.4 | 0.00 | 0.00 | 0.00 | 80 | 996.4 |
| 20260902123507 | 14 | 220 | 1.6 | 6.4 | 0.00 | 0.00 | 0.00 | 80 | 996.6 |
| 20260902123123 | 14 | 304 | 1.6 | 4.8 | 0.00 | 0.00 | 0.00 | 80 | 996.5 |
| 20260902122554 | 14 | 273 | 1.6 | 4.8 | 0.00 | 0.00 | 0.00 | 80 | 996.7 |
| 20260902122055 | 14 | 188 | 0.0 | 4.8 | 0.00 | 0.00 | 0.00 | 80 | 996.6 |
| 20260902121528 | 14 | 280 | 0.0 | 4.8 | 0.00 | 0.00 | 0.00 | 80 | 996.7 |
| 20260902121031 | 14 | 274 | 0.0 | 4.8 | 0.00 | 0.00 | 0.00 | 80 | 996.9 |
| 20260902120540 | 14 | 221 | 0.0 | 4.8 | 0.00 | 0.00 | 0.00 | 80 | 997.0 |
| 20260902120001 | 14 | 222 | 1.6 | 3.2 | 0.00 | 0.00 | 0.00 | 80 | 996.9 |
| 20260902115507 | 14 | 206 | 0.0 | 4.8 | 0.00 | 0.00 | 0.00 | 80 | 997.1 |
| 20260902115017 | 14 | 211 | 0.0 | 4.8 | 0.00 | 0.00 | 0.00 | 80 | 997.1 |
| 20260902114539 | 14 | 263 | 0.0 | 4.8 | 0.00 | 0.00 | 0.00 | 80 | 997.2 |
| 20260902114035 | 14 | 355 | 0.0 | 6.4 | 0.00 | 0.00 | 0.00 | 80 | 997.3 |
| 20260902113541 | 14 | 198 | 1.6 | 8.0 | 0.00 | 0.00 | 0.00 | 80 | 997.4 |
| 20260902113010 | 14 | 167 | 3.2 | 9.7 | 0.00 | 0.00 | 0.00 | 80 | 997.4 |
| 20260902112519 | 14 | 234 | 0.0 | 8.0 | 0.00 | 0.00 | 0.00 | 80 | 997.5 |
| 20260902112028 | 14 | 297 | 0.0 | 4.8 | 0.00 | 0.00 | 0.00 | 80 | 997.4 |
| 20260902111600 | 14 | 32 | 0.0 | 3.2 | 0.00 | 0.00 | 0.00 | 80 | 997.5 |
| 20260902111102 | 14 | 32 | 0.0 | 3.2 | 0.00 | 0.00 | 0.00 | 80 | 997.5 |
| 20260902110508 | 14 | 32 | 1.6 | 3.2 | 0.00 | 0.00 | 0.00 | 81 | 997.5 |
| 20260902110026 | 14 | 33 | 0.0 | 4.8 | 0.00 | 0.00 | 0.00 | 80 | 997.6 |
| 20260902105534 | 14 | 5 | 1.6 | 4.8 | 0.00 | 0.00 | 0.00 | 81 | 997.5 |
| 20260902105037 | 14 | 300 | 0.0 | 3.2 | 0.00 | 0.00 | 0.00 | 81 | 997.6 |
| 20260902104510 | 14 | 222 | 0.0 | 4.8 | 0.00 | 0.00 | 0.00 | 81 | 997.6 |
| 20260902104020 | 14 | 137 | 0.0 | 3.2 | 0.00 | 0.00 | 0.00 | 81 | 997.7 |
| 20260902103521 | 14 | 57 | 0.0 | 4.8 | 0.00 | 0.00 | 0.00 | 82 | 997.7 |
| 20260902103050 | 14 | 58 | 0.0 | 3.2 | 0.00 | 0.00 | 0.00 | 82 | 997.8 |
| 20260902102556 | 14 | 192 | 0.0 | 3.2 | 0.00 | 0.00 | 0.00 | 82 | 997.8 |
| 20260902102004 | 14 | 192 | 0.0 | 6.4 | 0.00 | 0.00 | 0.00 | 82 | 997.7 |
| 20260902101551 | 14 | 192 | 0.0 | 6.4 | 0.00 | 0.00 | 0.00 | 82 | 997.7 |
| 20260902101049 | 14 | 229 | 1.6 | 4.8 | 0.00 | 0.00 | 0.00 | 82 | 997.8 |
| 20260902100555 | 14 | 274 | 1.6 | 6.4 | 0.00 | 0.00 | 0.00 | 83 | 997.8 |
| 20260902100023 | 14 | 278 | 1.6 | 4.8 | 0.00 | 0.00 | 0.00 | 83 | 997.8 |
| 20260902095531 | 14 | 248 | 0.0 | 4.8 | 0.00 | 0.00 | 0.00 | 83 | 997.9 |
| 20260902095043 | 14 | 250 | 0.0 | 4.8 | 0.00 | 0.00 | 0.00 | 83 | 997.9 |
| 20260902094506 | 14 | 251 | 0.0 | 3.2 | 0.00 | 0.00 | 0.00 | 83 | 997.9 |
| 20260902094014 | 13 | 88 | 0.0 | 3.2 | 0.00 | 0.00 | 0.00 | 83 | 997.9 |
| 20260902093522 | 13 | 88 | 0.0 | 4.8 | 0.00 | 0.00 | 0.00 | 84 | 997.9 |
| 20260902093059 | 13 | 78 | 0.0 | 6.4 | 0.00 | 0.00 | 0.00 | 84 | 998.0 |
| 20260902092601 | 13 | 261 | 1.6 | 11.3 | 0.00 | 0.00 | 0.00 | 84 | 998.0 |
| 20260902092008 | 13 | 184 | 1.6 | 11.3 | 0.00 | 0.00 | 0.00 | 84 | 998.2 |
| 20260902091559 | 13 | 215 | 0.0 | 3.2 | 0.00 | 0.00 | 0.00 | 84 | 998.3 |
| 20260902091039 | 13 | 213 | 0.0 | 0.0 | 0.00 | 0.00 | 0.00 | 84 | 998.3 |
| 20260902090549 | 13 | 210 | 0.0 | 0.0 | 0.00 | 0.00 | 0.00 | 84 | 998.3 |
| 20260902090030 | 13 | 210 | 0.0 | 0.0 | 0.00 | 0.00 | 0.00 | 84 | 998.3 |
| 20260902085525 | 13 | 210 | 0.0 | 0.0 | 0.00 | 0.00 | 0.00 | 83 | 998.5 |
| 20260902085029 | 13 | 210 | 0.0 | 0.0 | 0.00 | 0.00 | 0.00 | 83 | 998.5 |
| 20260902084559 | 13 | 210 | 0.0 | 0.0 | 0.00 | 0.00 | 0.00 | 83 | 998.6 |
| 20260902084002 | 14 | 210 | 0.0 | 0.0 | 0.00 | 0.00 | 0.00 | 82 | 998.6 |
| 20260902083504 | 14 | 210 | 0.0 | 1.6 | 0.00 | 0.00 | 0.00 | 82 | 998.6 |
| 20260902083042 | 14 | 210 | 0.0 | 3.2 | 0.00 | 0.00 | 0.00 | 82 | 998.6 |
| 20260902082546 | 14 | 210 | 0.0 | 3.2 | 0.00 | 0.00 | 0.00 | 82 | 998.6 |
| 20260902082043 | 14 | 210 | 0.0 | 3.2 | 0.00 | 0.00 | 0.00 | 82 | 998.6 |
| 20260902081520 | 14 | 209 | 0.0 | 4.8 | 0.00 | 0.00 | 0.00 | 81 | 998.7 |
| 20260902081025 | 14 | 210 | 0.0 | 4.8 | 0.00 | 0.00 | 0.00 | 81 | 998.7 |
| 20260902080514 | 15 | 271 | 0.0 | 4.8 | 0.00 | 0.00 | 0.00 | 81 | 998.6 |
| 20260902080049 | 15 | 267 | 0.0 | 4.8 | 0.00 | 0.00 | 0.00 | 80 | 998.6 |
| 20260902075551 | 15 | 340 | 0.0 | 1.6 | 0.00 | 0.00 | 0.00 | 80 | 998.6 |
| 20260902075057 | 15 | 340 | 0.0 | 3.2 | 0.00 | 0.00 | 0.00 | 80 | 998.7 |
| 20260902074517 | 15 | 340 | 1.6 | 3.2 | 0.00 | 0.00 | 0.00 | 79 | 998.6 |
| 20260902074031 | 15 | 167 | 0.0 | 3.2 | 0.00 | 0.00 | 0.00 | 79 | 998.6 |
| 20260902073538 | 15 | 167 | 0.0 | 1.6 | 0.00 | 0.00 | 0.00 | 79 | 998.6 |
| 20260902073001 | 15 | 167 | 0.0 | 4.8 | 0.00 | 0.00 | 0.00 | 79 | 998.7 |
| 20260902072508 | 15 | 167 | 0.0 | 1.6 | 0.00 | 0.00 | 0.00 | 79 | 998.7 |
| 20260902072014 | 15 | 32 | 0.0 | 3.2 | 0.00 | 0.00 | 0.00 | 79 | 998.7 |
| 20260902071535 | 16 | 170 | 0.0 | 3.2 | 0.00 | 0.00 | 0.00 | 79 | 998.9 |
| 20260902071035 | 16 | 170 | 0.0 | 4.8 | 0.00 | 0.00 | 0.00 | 79 | 998.8 |
| 20260902070542 | 16 | 170 | 0.0 | 9.7 | 0.00 | 0.00 | 0.00 | 78 | 998.9 |
| 20260902070011 | 16 | 142 | 1.6 | 12.9 | 0.00 | 0.00 | 0.00 | 78 | 999.0 |
| 20260902065520 | 16 | 158 | 6.4 | 12.9 | 0.00 | 0.00 | 0.00 | 78 | 999.1 |
| 20260902065028 | 16 | 232 | 0.0 | 8.0 | 0.00 | 0.00 | 0.00 | 78 | 999.3 |
| 20260902064556 | 16 | 172 | 1.6 | 14.5 | 0.00 | 0.00 | 0.00 | 77 | 999.2 |
| 20260902064004 | 16 | 183 | 3.2 | 16.1 | 0.00 | 0.00 | 0.00 | 77 | 999.3 |
| 20260902063508 | 16 | 213 | 0.0 | 6.4 | 0.00 | 0.00 | 0.00 | 77 | 999.2 |
| 20260902063053 | 16 | 213 | 1.6 | 14.5 | 0.00 | 0.00 | 0.00 | 77 | 999.2 |
| 20260902062555 | 16 | 217 | 3.2 | 14.5 | 0.00 | 0.00 | 0.00 | 77 | 999.2 |
| 20260902062057 | 15 | 172 | 3.2 | 9.7 | 0.00 | 0.00 | 0.00 | 77 | 999.2 |
| 20260902061540 | 15 | 184 | 1.6 | 11.3 | 0.00 | 0.00 | 0.00 | 77 | 999.1 |
| 20260902061042 | 15 | 194 | 1.6 | 11.3 | 0.00 | 0.00 | 0.00 | 77 | 999.2 |
| 20260902060543 | 15 | 264 | 3.2 | 8.0 | 0.00 | 0.00 | 0.00 | 77 | 999.1 |
| 20260902060014 | 15 | 153 | 3.2 | 8.0 | 0.00 | 0.00 | 0.00 | 77 | 999.0 |
| 20260902055528 | 15 | 227 | 1.6 | 6.4 | 0.00 | 0.00 | 0.00 | 77 | 999.2 |
| 20260902055038 | 15 | 100 | 0.0 | 0.0 | 0.00 | 0.00 | 0.00 | 77 | 999.2 |
| 20260902054557 | 15 | 100 | 0.0 | 0.0 | 0.00 | 0.00 | 0.00 | 77 | 999.2 |
| 20260902054003 | 15 | 100 | 0.0 | 0.0 | 0.00 | 0.00 | 0.00 | 77 | 999.2 |
| 20260902053510 | 16 | 228 | 0.0 | 0.0 | 0.00 | 0.00 | 0.00 | 77 | 999.4 |
| 20260902053040 | 15 | 228 | 0.0 | 0.0 | 0.00 | 0.00 | 0.00 | 77 | 999.2 |
| 20260902052547 | 15 | 228 | 0.0 | 0.0 | 0.00 | 0.00 | 0.00 | 77 | 999.4 |
| 20260902052052 | 16 | 228 | 0.0 | 0.0 | 0.00 | 0.00 | 0.00 | 77 | 999.4 |
| 20260902051521 | 16 | 228 | 0.0 | 0.0 | 0.00 | 0.00 | 0.00 | 77 | 999.3 |
| 20260902051026 | 16 | 228 | 0.0 | 0.0 | 0.00 | 0.00 | 0.00 | 76 | 999.2 |
| 20260902050533 | 16 | 228 | 0.0 | 0.0 | 0.00 | 0.00 | 0.00 | 76 | 999.2 |
| 20260902050007 | 16 | 228 | 0.0 | 0.0 | 0.00 | 0.00 | 0.00 | 76 | 999.4 |
| 20260902045510 | 16 | 228 | 0.0 | 0.0 | 0.00 | 0.00 | 0.00 | 76 | 999.5 |
| 20260902045009 | 16 | 228 | 0.0 | 0.0 | 0.00 | 0.00 | 0.00 | 76 | 999.4 |
| 20260902044550 | 16 | 228 | 0.0 | 0.0 | 0.00 | 0.00 | 0.00 | 75 | 999.5 |
| 20260902044050 | 16 | 229 | 0.0 | 0.0 | 0.00 | 0.00 | 0.00 | 75 | 999.6 |
| 20260902043537 | 16 | 229 | 0.0 | 0.0 | 0.00 | 0.00 | 0.00 | 75 | 999.5 |
| 20260902043103 | 16 | 229 | 0.0 | 0.0 | 0.00 | 0.00 | 0.00 | 74 | 999.5 |
| 20260902042507 | 16 | 229 | 0.0 | 0.0 | 0.00 | 0.00 | 0.00 | 74 | 999.5 |
| 20260902042021 | 16 | 229 | 0.0 | 0.0 | 0.00 | 0.00 | 0.00 | 74 | 999.5 |
| 20260902041600 | 16 | 229 | 0.0 | 0.0 | 0.00 | 0.00 | 0.00 | 74 | 999.4 |
| 20260902041101 | 16 | 229 | 0.0 | 0.0 | 0.00 | 0.00 | 0.00 | 73 | 999.5 |
| 20260902040505 | 16 | 235 | 0.0 | 3.2 | 0.00 | 0.00 | 0.00 | 73 | 999.5 |
| 20260902040028 | 16 | 235 | 0.0 | 4.8 | 0.00 | 0.00 | 0.00 | 73 | 999.5 |
| 20260902035534 | 16 | 235 | 1.6 | 4.8 | 0.00 | 0.00 | 0.00 | 72 | 999.5 |
| 20260902035040 | 16 | 154 | 0.0 | 3.2 | 0.00 | 0.00 | 0.00 | 72 | 999.4 |
| 20260902034515 | 16 | 153 | 0.0 | 6.4 | 0.00 | 0.00 | 0.00 | 72 | 999.3 |
| 20260902034023 | 17 | 140 | 0.0 | 6.4 | 0.00 | 0.00 | 0.00 | 71 | 999.3 |
| 20260902033529 | 17 | 255 | 0.0 | 0.0 | 0.00 | 0.00 | 0.00 | 70 | 999.2 |
| 20260902033059 | 17 | 255 | 0.0 | 1.6 | 0.00 | 0.00 | 0.00 | 70 | 999.2 |
| 20260902032506 | 17 | 255 | 0.0 | 3.2 | 0.00 | 0.00 | 0.00 | 70 | 999.1 |
| 20260902032021 | 17 | 284 | 0.0 | 3.2 | 0.00 | 0.00 | 0.00 | 70 | 999.1 |
| 20260902031552 | 17 | 173 | 0.0 | 3.2 | 0.00 | 0.00 | 0.00 | 69 | 999.1 |
| 20260902031055 | 17 | 173 | 0.0 | 4.8 | 0.00 | 0.00 | 0.00 | 69 | 999.1 |
| 20260902030504 | 17 | 173 | 1.6 | 4.8 | 0.00 | 0.00 | 0.00 | 69 | 999.1 |
| 20260902030043 | 17 | 196 | 0.0 | 3.2 | 0.00 | 0.00 | 0.00 | 69 | 999.0 |
| 20260902025549 | 17 | 196 | 0.0 | 4.8 | 0.00 | 0.00 | 0.00 | 69 | 999.0 |
| 20260902025055 | 17 | 196 | 0.0 | 4.8 | 0.00 | 0.00 | 0.00 | 69 | 999.1 |
| 20260902024535 | 17 | 211 | 0.0 | 3.2 | 0.00 | 0.00 | 0.00 | 68 | 999.1 |
| 20260902024041 | 17 | 192 | 0.0 | 4.8 | 0.00 | 0.00 | 0.00 | 68 | 999.1 |
| 20260902023547 | 17 | 191 | 1.6 | 4.8 | 0.00 | 0.00 | 0.00 | 68 | 999.1 |
| 20260902023027 | 18 | 155 | 0.0 | 4.8 | 0.00 | 0.00 | 0.00 | 68 | 999.1 |
| 20260902022538 | 18 | 155 | 1.6 | 4.8 | 0.00 | 0.00 | 0.00 | 68 | 999.1 |
| 20260902022044 | 18 | 286 | 1.6 | 6.4 | 0.00 | 0.00 | 0.00 | 68 | 999.2 |
| 20260902021515 | 18 | 260 | 3.2 | 9.7 | 0.00 | 0.00 | 0.00 | 68 | 999.1 |
| 20260902021027 | 18 | 156 | 0.0 | 12.9 | 0.00 | 0.00 | 0.00 | 67 | 999.1 |
| 20260902020535 | 18 | 230 | 1.6 | 12.9 | 0.00 | 0.00 | 0.00 | 68 | 999.1 |
| 20260902020001 | 18 | 148 | 0.0 | 6.4 | 0.00 | 0.00 | 0.00 | 68 | 999.1 |
| 20260902015509 | 18 | 142 | 1.6 | 6.4 | 0.00 | 0.00 | 0.00 | 68 | 999.0 |
| 20260902015018 | 18 | 146 | 1.6 | 6.4 | 0.00 | 0.00 | 0.00 | 68 | 999.0 |
| 20260902014556 | 18 | 169 | 1.6 | 8.0 | 0.00 | 0.00 | 0.00 | 67 | 999.0 |
| 20260902014059 | 18 | 170 | 0.0 | 8.0 | 0.00 | 0.00 | 0.00 | 66 | 999.0 |
| 20260902013503 | 18 | 143 | 3.2 | 8.0 | 0.00 | 0.00 | 0.00 | 66 | 998.8 |
| 20260902013041 | 18 | 128 | 1.6 | 11.3 | 0.00 | 0.00 | 0.00 | 66 | 998.8 |
| 20260902012548 | 18 | 223 | 1.6 | 11.3 | 0.00 | 0.00 | 0.00 | 66 | 998.8 |
| 20260902012059 | 18 | 290 | 1.6 | 11.3 | 0.00 | 0.00 | 0.00 | 67 | 998.8 |
| 20260902011535 | 19 | 196 | 3.2 | 9.7 | 0.00 | 0.00 | 0.00 | 67 | 998.8 |
| 20260902011049 | 19 | 168 | 3.2 | 8.0 | 0.00 | 0.00 | 0.00 | 68 | 998.7 |
| 20260902010553 | 19 | 246 | 1.6 | 8.0 | 0.00 | 0.00 | 0.00 | 68 | 998.7 |
| 20260902010033 | 18 | 250 | 1.6 | 4.8 | 0.00 | 0.00 | 0.00 | 67 | 998.7 |
| 20260902005533 | 18 | 228 | 0.0 | 3.2 | 0.00 | 0.00 | 0.00 | 67 | 998.7 |
| 20260902005041 | 18 | 149 | 0.0 | 1.6 | 0.00 | 0.00 | 0.00 | 67 | 998.7 |
| 20260902004505 | 18 | 149 | 0.0 | 8.0 | 0.00 | 0.00 | 0.00 | 67 | 998.7 |
| 20260902004022 | 18 | 149 | 1.6 | 8.0 | 0.00 | 0.00 | 0.00 | 67 | 998.7 |
| 20260902003525 | 18 | 246 | 0.0 | 12.9 | 0.00 | 0.00 | 0.00 | 66 | 998.8 |
| 20260902003055 | 19 | 173 | 3.2 | 12.9 | 0.00 | 0.00 | 0.00 | 66 | 998.7 |
| 20260902002502 | 19 | 99 | 1.6 | 16.1 | 0.00 | 0.00 | 0.00 | 66 | 998.7 |
| 20260902002011 | 19 | 205 | 4.8 | 16.1 | 0.00 | 0.00 | 0.00 | 66 | 998.7 |
| 20260902001543 | 19 | 91 | 1.6 | 11.3 | 0.00 | 0.00 | 0.00 | 66 | 998.6 |
| 20260902001054 | 19 | 178 | 1.6 | 8.0 | 0.00 | 0.00 | 0.00 | 66 | 998.5 |
| 20260902000602 | 19 | 152 | 1.6 | 11.3 | 0.00 | 0.00 | 0.00 | 66 | 998.5 |
| 20260902000035 | 19 | 148 | 1.6 | 11.3 | 0.00 | 0.00 | 0.00 | 65 | 998.5 |
| 20260901235544 | 19 | 175 | 3.2 | 9.7 | 0.00 | 0.00 | 0.00 | 65 | 998.5 |
| 20260901235048 | 19 | 181 | 1.6 | 9.7 | 0.00 | 0.00 | 0.00 | 65 | 998.5 |
| 20260901234523 | 19 | 153 | 1.6 | 9.7 | 0.00 | 0.00 | 0.00 | 66 | 998.5 |
| 20260901234033 | 19 | 235 | 1.6 | 9.7 | 0.00 | 0.00 | 0.00 | 66 | 998.7 |
| 20260901233543 | 19 | 152 | 1.6 | 11.3 | 0.00 | 0.00 | 0.00 | 65 | 998.7 |
| 20260901233007 | 19 | 202 | 4.8 | 11.3 | 0.00 | 0.00 | 0.00 | 65 | 998.7 |
| 20260901232525 | 19 | 194 | 1.6 | 14.5 | 0.00 | 0.00 | 0.00 | 65 | 998.8 |
| 20260901232030 | 20 | 253 | 3.2 | 14.5 | 0.00 | 0.00 | 0.00 | 64 | 998.7 |
| 20260901231559 | 20 | 254 | 1.6 | 9.7 | 0.00 | 0.00 | 0.00 | 63 | 998.7 |
| 20260901231008 | 20 | 200 | 0.0 | 9.7 | 0.00 | 0.00 | 0.00 | 64 | 998.7 |
| 20260901230513 | 20 | 194 | 3.2 | 14.5 | 0.00 | 0.00 | 0.00 | 64 | 998.7 |
| 20260901230053 | 20 | 113 | 6.4 | 14.5 | 0.00 | 0.00 | 0.00 | 64 | 998.8 |
| 20260901225558 | 19 | 262 | 3.2 | 12.9 | 0.00 | 0.00 | 0.00 | 65 | 998.8 |
| 20260901225006 | 19 | 250 | 1.6 | 11.3 | 0.00 | 0.00 | 0.00 | 66 | 998.8 |
| 20260901224541 | 19 | 175 | 3.2 | 11.3 | 0.00 | 0.00 | 0.00 | 67 | 998.9 |
| 20260901224046 | 18 | 305 | 3.2 | 9.7 | 0.00 | 0.00 | 0.00 | 68 | 998.9 |
| 20260901223553 | 18 | 238 | 1.6 | 8.0 | 0.00 | 0.00 | 0.00 | 68 | 999.0 |
| 20260901223029 | 18 | 215 | 0.0 | 8.0 | 0.00 | 0.00 | 0.00 | 67 | 999.1 |
| 20260901222535 | 19 | 325 | 1.6 | 9.7 | 0.00 | 0.00 | 0.00 | 67 | 999.1 |
| 20260901222040 | 19 | 153 | 4.8 | 11.3 | 0.00 | 0.00 | 0.00 | 66 | 999.0 |
| 20260901221525 | 19 | 252 | 1.6 | 11.3 | 0.00 | 0.00 | 0.00 | 66 | 999.0 |
| 20260901221027 | 19 | 190 | 1.6 | 14.5 | 0.00 | 0.00 | 0.00 | 65 | 998.8 |
| 20260901220532 | 19 | 180 | 6.4 | 14.5 | 0.00 | 0.00 | 0.00 | 65 | 998.8 |
| 20260901220101 | 19 | 206 | 3.2 | 9.7 | 0.00 | 0.00 | 0.00 | 66 | 998.8 |
| 20260901215517 | 19 | 165 | 3.2 | 11.3 | 0.00 | 0.00 | 0.00 | 66 | 998.8 |
| 20260901215020 | 19 | 173 | 3.2 | 12.9 | 0.00 | 0.00 | 0.00 | 66 | 998.8 |
| 20260901214551 | 19 | 198 | 4.8 | 9.7 | 0.00 | 0.00 | 0.00 | 66 | 998.8 |
| 20260901214052 | 19 | 123 | 4.8 | 8.0 | 0.00 | 0.00 | 0.00 | 66 | 998.9 |
| 20260901213559 | 19 | 163 | 1.6 | 14.5 | 0.00 | 0.00 | 0.00 | 67 | 998.9 |
| 20260901213029 | 19 | 176 | 4.8 | 11.3 | 0.00 | 0.00 | 0.00 | 68 | 998.9 |
| 20260901212541 | 18 | 355 | 1.6 | 8.0 | 0.00 | 0.00 | 0.00 | 68 | 998.9 |
| 20260901212049 | 18 | 80 | 3.2 | 8.0 | 0.00 | 0.00 | 0.00 | 68 | 999.0 |
| 20260901211503 | 18 | 115 | 1.6 | 4.8 | 0.00 | 0.00 | 0.00 | 67 | 999.0 |
| 20260901211017 | 19 | 69 | 1.6 | 6.4 | 0.00 | 0.00 | 0.00 | 67 | 998.9 |
| 20260901210522 | 19 | 229 | 3.2 | 9.7 | 0.00 | 0.00 | 0.00 | 68 | 999.0 |
| 20260901210107 | 18 | 162 | 1.6 | 6.4 | 0.00 | 0.00 | 0.00 | 68 | 998.9 |
| 20260901205600 | 18 | 215 | 1.6 | 6.4 | 0.00 | 0.00 | 0.00 | 69 | 999.0 |
| 20260901205014 | 18 | 205 | 1.6 | 6.4 | 0.00 | 0.00 | 0.00 | 70 | 999.2 |
| 20260901204533 | 18 | 172 | 1.6 | 6.4 | 0.00 | 0.00 | 0.00 | 70 | 999.1 |
| 20260901204034 | 18 | 254 | 3.2 | 6.4 | 0.00 | 0.00 | 0.00 | 70 | 999.2 |
| 20260901203540 | 18 | 191 | 1.6 | 8.0 | 0.00 | 0.00 | 0.00 | 70 | 999.2 |
| 20260901203029 | 18 | 194 | 3.2 | 8.0 | 0.00 | 0.00 | 0.00 | 70 | 999.3 |
| 20260901202526 | 18 | 265 | 3.2 | 8.0 | 0.00 | 0.00 | 0.00 | 71 | 999.2 |
| 20260901202032 | 18 | 190 | 3.2 | 8.0 | 0.00 | 0.00 | 0.00 | 71 | 999.1 |
| 20260901201556 | 18 | 205 | 0.0 | 4.8 | 0.00 | 0.00 | 0.00 | 70 | 999.3 |
| 20260901201008 | 18 | 191 | 1.6 | 6.4 | 0.00 | 0.00 | 0.00 | 70 | 999.2 |
| 20260901200510 | 18 | 288 | 1.6 | 11.3 | 0.00 | 0.00 | 0.00 | 69 | 999.3 |
| 20260901200057 | 19 | 311 | 1.6 | 11.3 | 0.00 | 0.00 | 0.00 | 69 | 999.2 |
| 20260901195603 | 19 | 171 | 3.2 | 6.4 | 0.00 | 0.00 | 0.00 | 69 | 999.2 |
| 20260901195010 | 19 | 176 | 1.6 | 4.8 | 0.00 | 0.00 | 0.00 | 69 | 999.2 |
| 20260901194546 | 19 | 184 | 0.0 | 4.8 | 0.00 | 0.00 | 0.00 | 68 | 999.3 |
| 20260901194050 | 19 | 169 | 1.6 | 12.9 | 0.00 | 0.00 | 0.00 | 68 | 999.3 |
| 20260901193600 | 19 | 76 | 3.2 | 12.9 | 0.00 | 0.00 | 0.00 | 68 | 999.4 |
| 20260901193035 | 19 | 223 | 4.8 | 9.7 | 0.00 | 0.00 | 0.00 | 69 | 999.4 |
| 20260901192544 | 18 | 166 | 1.6 | 8.0 | 0.00 | 0.00 | 0.00 | 70 | 999.4 |
| 20260901192051 | 18 | 328 | 1.6 | 8.0 | 0.00 | 0.00 | 0.00 | 70 | 999.4 |
| 20260901191525 | 18 | 209 | 3.2 | 6.4 | 0.00 | 0.00 | 0.00 | 70 | 999.6 |
| 20260901191038 | 18 | 158 | 1.6 | 9.7 | 0.00 | 0.00 | 0.00 | 70 | 999.5 |
| 20260901190540 | 18 | 219 | 1.6 | 12.9 | 0.00 | 0.00 | 0.00 | 70 | 999.6 |
| 20260901190110 | 18 | 217 | 1.6 | 8.0 | 0.00 | 0.00 | 0.00 | 70 | 999.7 |
| 20260901185606 | 18 | 207 | 3.2 | 8.0 | 0.00 | 0.00 | 0.00 | 71 | 999.6 |